User: anonymous   Login
Location: Unspecified
(0.0000°N, 0.0000°E)
Time: 05:45:16
(UTC+00:00)
Language:

NAVSTAR 66 (USA 232) - Orbit

View from above orbital plane
View from above orbital plane
View from above satellite
View from above satellite

Ground track
Ground track

The orbit is defined by the following mean orbital elements,

1 37753U          26145.42926007 +.00000000 +00000-0 +00000-0 0 00006
2 37753  56.5755 332.9045 0142030  62.2143 297.5817  2.00562561    00
Epoch (UTC): 25 May 2026 10:18:08
Eccentricity: 0.0142030
inclination: 56.5755°
perigee height: 19805 km
apogee height: 20560 km
right ascension of ascending node: 332.9045°
argument of perigee: 62.2143°
revolutions per day: 2.00562561
mean anomaly at epoch: 297.5817°

The dashed part of the orbit path shows where the satellite is in the earth's shadow,  

DLR